This is the latest recevied weather packets stored in our database for station/object WX5HOT. If no packets are shown the sender has not sent any weather packets the latest 10 day(s).
| Time | Temp. | Humidity | Pressure | Rain* | Wind** | Luminosity | Snow |
|---|---|---|---|---|---|---|---|
| 1777678652 | 15.56° C | 58% | 1065.5 hPa | 0 mm | - | 51 W/m² | - |
| 1777678349 | 15.56° C | 58% | 1065.3 hPa | 0 mm | - | 64 W/m² | - |
| 1777678044 | 15.56° C | 58% | 1065.3 hPa | 0 mm | - | 58 W/m² | - |
| 1777677742 | 15.56° C | 59% | 1065.3 hPa | 0 mm | - | 70 W/m² | - |
| 1777677439 | 15.56° C | 58% | 1064.9 hPa | 0 mm | - | 68 W/m² | - |
| 1777677137 | 15.56° C | 58% | 1064.8 hPa | 0 mm | - | 81 W/m² | - |
| 1777676836 | 15.56° C | 58% | 1064.8 hPa | 0 mm | - | 80 W/m² | - |
| 1777676534 | 15.56° C | 59% | 1064.7 hPa | 0 mm | - | 88 W/m² | - |
| 1777676231 | 15.56° C | 58% | 1065.2 hPa | 0 mm | - | 93 W/m² | - |
| 1777675928 | 16.11° C | 58% | 1065 hPa | 0 mm | - | 121 W/m² | - |
| 1777675624 | 16.11° C | 57% | 1064.9 hPa | 0 mm | - | 114 W/m² | - |
| 1777675321 | 16.11° C | 56% | 1064.9 hPa | 0 mm | - | 134 W/m² | - |
| 1777675018 | 16.11° C | 55% | 1065 hPa | 0 mm | - | 179 W/m² | - |
| 1777674714 | 16.11° C | 53% | 1064.6 hPa | 0 mm | - | 213 W/m² | - |
| 1777674411 | 16.11° C | 54% | 1064.4 hPa | 0 mm | - | 181 W/m² | - |
| 1777674109 | 16.11° C | 55% | 1064.6 hPa | 0 mm | - | 168 W/m² | - |
| 1777673804 | 16.11° C | 55% | 1064.9 hPa | 0 mm | - | 230 W/m² | - |
| 1777673502 | 16.11° C | 53% | 1064.9 hPa | 0 mm | - | 195 W/m² | - |
| 1777673199 | 16.11° C | 55% | 1064.7 hPa | 0 mm | - | 193 W/m² | - |
| 1777672896 | 16.11° C | 56% | 1064.9 hPa | 0 mm | - | 184 W/m² | - |
| 1777672593 | 16.67° C | 53% | 1065.1 hPa | 0 mm | - | 229 W/m² | - |
| 1777672288 | 16.67° C | 54% | 1065 hPa | 0 mm | - | 231 W/m² | - |
| 1777671983 | 16.67° C | 52% | 1064.9 hPa | 0 mm | - | 235 W/m² | - |
| 1777671679 | 17.22° C | 52% | 1064.9 hPa | 0 mm | - | 247 W/m² | - |
| 1777671376 | 17.22° C | 52% | 1065.1 hPa | 0 mm | - | 287 W/m² | - |
* Rain latest hour (hover to see other rain measurements)
** Current wind speed in m/s (hover to see current wind gust speed)